Location: Newark
(33.6439°N, 114.9881°W)
Time: 00:31:34
(UTC+00:00)

Tiros 1 - Pass Details

Date: 28 July 2019
Orbit: 631 x 664 km, 48.4° (Epoch: 24 August)

Event Time Altitude Azimuth Distance (km) Brightness Sun altitude
Rises 20:23:48 0° 309° (NW) 2,991 10.6 73.1°
Reaches altitude 10° 20:27:15 10° 334° (NNW) 2,081 9.8 72.7°
Maximum altitude 20:29:49 14° 7° (N) 1,817 9.5 72.4°
Drops below altitude 10° 20:32:22 10° 39° (NE) 2,082 9.7 72.1°
Sets 20:35:49 0° 64° (ENE) 2,992 10.4 71.6°
